TimeEST,TemperatureF,Dew PointF,Humidity,Sea Level PressureIn,VisibilityMPH,Wind Direction,Wind SpeedMPH,Gust SpeedMPH,PrecipitationIn,Events,Conditions,WindDirDegrees,DateUTC
8:35 AM,44.6,30.2,57,30.08,10.0,WSW,5.8,-,N/A,,Clear,240,2013-01-20 13:35:00
8:55 AM,46.4,30.2,53,30.08,10.0,WSW,4.6,-,N/A,,Clear,240,2013-01-20 13:55:00
9:15 AM,46.4,30.2,53,30.09,10.0,WSW,4.6,-,N/A,,Clear,250,2013-01-20 14:15:00
9:35 AM,46.4,30.2,53,30.09,10.0,WSW,4.6,-,N/A,,Clear,240,2013-01-20 14:35:00
9:55 AM,50.0,30.2,47,30.09,10.0,West,3.5,-,N/A,,Clear,260,2013-01-20 14:55:00
10:15 AM,51.8,30.2,44,30.09,10.0,West,4.6,-,N/A,,Clear,260,2013-01-20 15:15:00
10:35 AM,53.6,30.2,41,30.08,10.0,SW,4.6,-,N/A,,Clear,230,2013-01-20 15:35:00
10:55 AM,53.6,30.2,41,30.08,10.0,WSW,5.8,-,N/A,,Clear,250,2013-01-20 15:55:00
11:15 AM,55.4,30.2,38,30.07,10.0,WSW,8.1,-,N/A,,Clear,240,2013-01-20 16:15:00
11:35 AM,57.2,30.2,36,30.06,10.0,SW,4.6,-,N/A,,Clear,220,2013-01-20 16:35:00
11:55 AM,57.2,30.2,36,30.05,10.0,SW,9.2,-,N/A,,Clear,230,2013-01-20 16:55:00
12:15 PM,59.0,30.2,34,30.03,10.0,West,6.9,17.3,N/A,,Clear,270,2013-01-20 17:15:00
12:35 PM,59.0,30.2,34,30.02,10.0,WSW,6.9,16.1,N/A,,Clear,240,2013-01-20 17:35:00
12:55 PM,60.8,32.0,34,30.01,10.0,WSW,8.1,-,N/A,,Clear,250,2013-01-20 17:55:00
1:15 PM,60.8,32.0,34,30.00,10.0,WSW,4.6,19.6,N/A,,Clear,250,2013-01-20 18:15:00
1:35 PM,60.8,32.0,34,30.00,10.0,SW,8.1,-,N/A,,Clear,230,2013-01-20 18:35:00
1:55 PM,60.8,30.2,31,29.99,10.0,WNW,5.8,-,N/A,,Clear,290,2013-01-20 18:55:00
2:15 PM,62.6,30.2,30,29.99,10.0,West,8.1,-,N/A,,Clear,270,2013-01-20 19:15:00
2:35 PM,62.6,30.2,30,29.98,10.0,West,10.4,18.4,N/A,,Clear,270,2013-01-20 19:35:00
2:55 PM,62.6,30.2,30,29.98,10.0,West,8.1,-,N/A,,Clear,260,2013-01-20 19:55:00
3:15 PM,62.6,30.2,30,29.98,10.0,WNW,9.2,-,N/A,,Clear,290,2013-01-20 20:15:00
3:35 PM,60.8,30.2,31,29.98,10.0,West,6.9,-,N/A,,Clear,270,2013-01-20 20:35:00
3:55 PM,60.8,28.4,29,29.99,10.0,West,5.8,-,N/A,,Clear,270,2013-01-20 20:55:00
4:15 PM,60.8,30.2,31,29.99,10.0,WSW,5.8,-,N/A,,Clear,240,2013-01-20 21:15:00
4:35 PM,60.8,30.2,31,30.00,10.0,West,5.8,-,N/A,,Clear,270,2013-01-20 21:35:00
4:55 PM,59.0,30.2,34,30.00,10.0,West,4.6,-,N/A,,Clear,270,2013-01-20 21:55:00
5:15 PM,57.2,30.2,36,30.00,10.0,Calm,Calm,-,N/A,,Clear,0,2013-01-20 22:15:00
5:55 PM,50.0,32.0,50,30.02,10.0,Calm,Calm,-,N/A,,Clear,0,2013-01-20 22:55:00
6:15 PM,46.4,32.0,57,30.03,10.0,Calm,Calm,-,N/A,,Clear,0,2013-01-20 23:15:00
6:35 PM,46.4,32.0,57,30.04,10.0,Calm,Calm,-,N/A,,Clear,0,2013-01-20 23:35:00
6:55 PM,46.4,32.0,57,30.04,10.0,Calm,Calm,-,N/A,,Clear,0,2013-01-20 23:55:00
7:15 PM,46.4,32.0,57,30.05,10.0,Calm,Calm,-,N/A,,Clear,0,2013-01-21 00:15:00
7:35 PM,44.6,32.0,61,30.06,10.0,Calm,Calm,-,N/A,,Clear,0,2013-01-21 00:35:00
7:55 PM,44.6,32.0,61,30.06,10.0,Calm,Calm,-,N/A,,Clear,0,2013-01-21 00:55:00
8:15 PM,46.4,32.0,57,30.07,10.0,Calm,Calm,-,N/A,,Clear,0,2013-01-21 01:15:00
8:35 PM,46.4,30.2,53,30.07,10.0,Calm,Calm,-,N/A,,Clear,0,2013-01-21 01:35:00
8:55 PM,44.6,28.4,53,30.07,10.0,Calm,Calm,-,N/A,,Clear,0,2013-01-21 01:55:00
9:15 PM,41.0,30.2,65,30.08,10.0,Calm,Calm,-,N/A,,Clear,0,2013-01-21 02:15:00
9:35 PM,39.2,30.2,70,30.08,10.0,Calm,Calm,-,N/A,,Clear,0,2013-01-21 02:35:00
9:55 PM,37.4,30.2,75,30.08,10.0,Calm,Calm,-,N/A,,Clear,0,2013-01-21 02:55:00
10:15 PM,37.4,30.2,75,30.09,10.0,Calm,Calm,-,N/A,,Clear,0,2013-01-21 03:15:00
10:35 PM,37.4,28.4,70,30.09,10.0,Calm,Calm,-,N/A,,Clear,0,2013-01-21 03:35:00
10:55 PM,41.0,28.4,61,30.09,10.0,Calm,Calm,-,N/A,,Clear,0,2013-01-21 03:55:00
11:15 PM,41.0,28.4,61,30.09,10.0,Calm,Calm,-,N/A,,Clear,0,2013-01-21 04:15:00
11:35 PM,39.2,28.4,65,30.09,10.0,Calm,Calm,-,N/A,,Clear,0,2013-01-21 04:35:00
11:55 PM,41.0,28.4,61,30.09,10.0,Calm,Calm,-,N/A,,Clear,0,2013-01-21 04:55:00